St. Augustine, FL

2:45 AM EDT on July 23, 2017 (GMT -0400)
Saint Augustine

Weather History for KSGJ - January, 2012

Change the Weather History Date:

Saturday, January 14, 2012

  Actual Average Record
Temperature  
Mean Temperature 45 °F -  
Max Temperature 55 °F 62 °F 78 °F (2013)
Min Temperature 35 °F 44 °F 28 °F (1981)
Degree Days  
Heating Degree Days 20    
Moisture  
Dew Point 23 °F    
Average Humidity 46    
Maximum Humidity 70    
Minimum Humidity 24    
Precipitation  
Precipitation 0.00 in - - ()
Sea Level Pressure  
Sea Level Pressure 30.38 in    
Wind  
Wind Speed 6 mph (WNW)    
Max Wind Speed 14 mph    
Max Gust Speed 16 mph    
Visibility 10 miles    
Events      
Averages and records for this station are not official NWS values.
T = Trace of Precipitation, MM = Missing Value Source: NWS Daily Summary

Daily Weather History Graph

Daily Weather History Graph

Search for Another Location

Airport or City:

Trip Planner

Search our weather history database for the weather conditions in past years. The results will help you decide how hot, cold, wet, or windy it might be!

Date:

Astronomy

Jan. 14, 2012 Rise Set
Actual Time 7:22 AM EST 5:46 PM EST
Civil Twilight 6:56 AM EST 6:12 PM EST
Nautical Twilight 6:26 AM EST 6:41 PM EST
Astronomical Twilight 5:57 AM EST 7:10 PM EST
Moon 11:33 PM EST (1/14) 10:36 AM EST (1/14)
Length of Visible Light 11h 16m
Length of Day
10h 24m
Waning Gibbous, 69% of the Moon is Illuminated
Jan 14
Waning Gibbous
Jan 16
Last Quarter
Jan 23
New
Jan 30
First Quarter
Feb 7
Full

Hourly Weather History & Observations

Time (EST) Temp. Windchill Dew Point Humidity Pressure Visibility Wind Dir Wind Speed Gust Speed Precip Events Conditions
12:55 AM 44.6 °F 41.4 °F 28.4 °F 53% 30.43 in 10.0 mi WNW 5.8 mph - N/A   Clear
12:58 AM 44.1 °F 40.1 °F 28.0 °F 53% 30.26 in 10.0 mi WNW 6.9 mph - N/A   Clear
1:55 AM 42.8 °F 38.6 °F 24.8 °F 49% 30.43 in 10.0 mi WNW 6.9 mph - N/A   Clear
1:58 AM 42.1 °F 37.7 °F 25.0 °F 51% 30.27 in 10.0 mi WNW 6.9 mph - N/A   Clear
2:55 AM 41.0 °F 36.4 °F 24.8 °F 53% 30.43 in 10.0 mi WNW 6.9 mph - N/A   Clear
2:58 AM 41.0 °F 37.1 °F 24.1 °F 51% 30.28 in 10.0 mi WNW 5.8 mph - N/A   Clear
3:55 AM 39.2 °F 35.9 °F 24.8 °F 56% 30.43 in 10.0 mi WNW 4.6 mph - N/A   Clear
3:58 AM 39.0 °F 35.7 °F 25.0 °F 57% 30.28 in 10.0 mi WNW 4.6 mph - N/A   Clear
4:55 AM 37.4 °F 31.4 °F 23.0 °F 56% 30.43 in 10.0 mi NW 8.1 mph - N/A   Clear
4:58 AM 39.0 °F 32.8 °F 23.0 °F 53% 30.29 in 10.0 mi NNW 9.2 mph - N/A   Clear
5:55 AM 37.4 °F 32.8 °F 21.2 °F 52% 30.43 in 10.0 mi NW 5.8 mph - N/A   Clear
5:58 AM 37.9 °F 33.5 °F 21.9 °F 53% 30.30 in 10.0 mi NW 5.8 mph - N/A   Clear
6:55 AM 37.4 °F 32.1 °F 21.2 °F 52% 30.43 in 10.0 mi WNW 6.9 mph - N/A   Clear
6:58 AM 37.0 °F 32.4 °F 21.0 °F 52% 30.32 in 10.0 mi WNW 5.8 mph - N/A   Clear
7:55 AM 35.6 °F - 23.0 °F 60% 30.43 in 10.0 mi Calm Calm - N/A   Clear
7:58 AM 35.1 °F - 23.0 °F 61% 30.36 in 10.0 mi Calm Calm - N/A   Clear
8:55 AM 39.2 °F 35.0 °F 21.2 °F 49% 30.43 in 10.0 mi NW 5.8 mph - N/A   Clear
8:58 AM 39.9 °F 35.1 °F 21.9 °F 49% 30.39 in 10.0 mi NW 6.9 mph - N/A   Clear
9:55 AM 44.6 °F 39.2 °F 19.4 °F 37% 30.43 in 10.0 mi NNW 10.4 mph - N/A   Clear
9:58 AM 44.1 °F 38.1 °F 19.0 °F 37% 30.40 in 10.0 mi NNW 11.5 mph - N/A   Clear
10:55 AM 48.2 °F - 17.6 °F 30% 30.43 in 10.0 mi NW 8.1 mph - N/A   Clear
10:58 AM 46.9 °F - 17.1 °F 30% 30.39 in 10.0 mi NNW 6.9 mph - N/A   Clear
11:55 AM 50.0 °F - 19.4 °F 30% 30.43 in 10.0 mi WNW 5.8 mph - N/A   Clear
11:58 AM 50.0 °F - 19.0 °F 29% 30.37 in 10.0 mi WNW 5.8 mph - N/A   Clear
12:55 PM 53.6 °F - 21.2 °F 28% 30.43 in 10.0 mi West 8.1 mph - N/A   Clear
12:58 PM 53.1 °F - 19.9 °F 27% 30.34 in 10.0 mi WNW 9.2 mph - N/A   Clear
1:55 PM 55.4 °F - 19.4 °F 25% 30.43 in 10.0 mi WNW 10.4 mph - N/A   Clear
1:58 PM 55.0 °F - 19.9 °F 25% 30.30 in 10.0 mi WSW 12.7 mph - N/A   Clear
2:55 PM 55.4 °F - 19.4 °F 25% 30.43 in 10.0 mi West 13.8 mph - N/A   Clear
2:58 PM 55.9 °F - 19.0 °F 24% 30.29 in 10.0 mi WSW 12.7 mph 16.1 mph N/A   Clear
3:55 PM 55.4 °F - 19.4 °F 25% 30.43 in 10.0 mi West 9.2 mph - N/A   Clear
3:58 PM 55.9 °F - 19.0 °F 24% 30.28 in 10.0 mi West 10.4 mph - N/A   Clear
4:55 PM 55.4 °F - 21.2 °F 26% 30.43 in 10.0 mi West 6.9 mph - N/A   Clear
4:58 PM 55.0 °F - 21.9 °F 28% 30.31 in 10.0 mi WNW 5.8 mph - N/A   Clear
5:55 PM 51.8 °F - 21.2 °F 30% 30.43 in 10.0 mi West 3.5 mph - N/A   Clear
5:58 PM 52.0 °F - 21.9 °F 31% 30.32 in 10.0 mi West 3.5 mph - N/A   Clear
6:55 PM 46.4 °F 45.2 °F 28.4 °F 50% 30.43 in 10.0 mi WSW 3.5 mph - N/A   Clear
6:58 PM 46.0 °F 44.8 °F 28.9 °F 51% 30.35 in 10.0 mi WSW 3.5 mph - N/A   Clear
7:55 PM 44.6 °F 42.2 °F 28.4 °F 53% 30.43 in 10.0 mi WSW 4.6 mph - N/A   Clear
7:58 PM 43.0 °F 41.3 °F 28.9 °F 58% 30.35 in 10.0 mi WSW 3.5 mph - N/A   Clear
8:55 PM 39.2 °F 35.9 °F 28.4 °F 65% 30.43 in 10.0 mi WSW 4.6 mph - N/A   Clear
8:58 PM 39.9 °F 36.7 °F 28.0 °F 63% 30.35 in 10.0 mi WSW 4.6 mph - N/A   Clear
9:55 PM 41.0 °F 38.0 °F 28.4 °F 61% 30.43 in 10.0 mi WSW 4.6 mph - N/A   Clear
9:58 PM 41.0 °F 38.0 °F 28.0 °F 60% 30.36 in 10.0 mi WSW 4.6 mph - N/A   Clear
10:55 PM 39.2 °F 35.9 °F 28.4 °F 65% 30.43 in 10.0 mi SW 4.6 mph - N/A   Clear
10:58 PM 37.9 °F 34.4 °F 28.9 °F 70% 30.36 in 10.0 mi WSW 4.6 mph - N/A   Clear
11:55 PM 39.2 °F 34.2 °F 28.4 °F 65% 30.43 in 10.0 mi WSW 6.9 mph - N/A   Clear
11:58 PM 39.9 °F 35.1 °F 28.9 °F 65% 30.35 in 10.0 mi WSW 6.9 mph - N/A   Clear